[[{"header":{"parameterUnit":"m.s-1","parameterCategory":2,"la1":30.2992,"la2":30.254,"lo1":-89.0895,"lo2":-89.0443,"dy":0.0025,"dx":0.0025,"nx":19,"ny":19,"refTime":"2026-04-02T21:00:00:Z","depth":"0","parameterNumber":2,"parameterNumberName":"U-component_of_CURRENTS"},"data":[0,0,0,-0.2362,-0.2368,-0.2666,-0.2667,-0.2795,-0.2795,0,0,0,0,0,0,0,0,0,0,0,-0.2204,-0.2205,-0.2361,-0.2369,-0.2666,-0.2667,-0.2795,-0.2795,0,0,0,0,0,0,0,0,0,0,0,-0.2204,-0.2205,-0.2206,-0.237,-0.2666,-0.2667,-0.2795,-0.2632,0,0,0,0,0,0,0,0,0,0,-0.2375,-0.2274,-0.2205,-0.2206,-0.2372,-0.2665,-0.2667,-0.2627,-0.2642,-0.2589,0,-0.2606,0,-0.2723,-0.2798,-0.2798,0,0,0,-0.2366,-0.2261,-0.2343,-0.2206,-0.2374,-0.2665,-0.2531,-0.2638,-0.2654,-0.2607,-0.261,-0.2618,-0.2725,-0.2799,-0.2799,-0.2764,-0.2764,0,0,-0.235,-0.2262,-0.2332,-0.2352,-0.241,-0.2522,-0.254,-0.2651,-0.2641,-0.261,-0.2624,-0.2727,-0.2799,-0.2799,-0.2765,-0.2764,0,0,0,-0.2304,-0.225,-0.2335,-0.2343,-0.2429,-0.253,-0.2552,-0.2637,-0.2665,-0.2626,-0.2729,-0.2799,-0.28,-0.2766,-0.2765,-0.2705,0,0,0,-0.2294,-0.2226,-0.2326,-0.2278,-0.2428,-0.2577,-0.2534,-0.2656,-0.2675,-0.2728,-0.2799,-0.28,-0.2767,-0.2765,-0.2708,-0.2672,0,0,0,-0.2198,-0.2218,-0.2239,-0.2272,-0.2411,-0.2579,-0.2616,-0.2664,-0.2736,-0.2798,-0.28,-0.2767,-0.2766,-0.2711,-0.2677,-0.2574,0,0,0,-0.2118,-0.2141,-0.2235,-0.2302,-0.2408,-0.2571,-0.2617,-0.2732,-0.2783,-0.2799,-0.2767,-0.2765,-0.2712,-0.2681,-0.2578,-0.2402,-0.2368,0,0,-0.211,-0.2137,-0.2185,-0.228,-0.2424,-0.2532,-0.2617,-0.2697,-0.2728,-0.2714,-0.2716,-0.2707,-0.2678,-0.2575,-0.2304,-0.2273,0,0,0,-0.2163,-0.2191,-0.2251,-0.2361,-0.2491,-0.2563,-0.2674,-0.2673,-0.2681,-0.2756,-0.2689,-0.2672,-0.2609,-0.2512,-0.2486,-0.2446,-0.2757,-0.2757,-0.2757,-0.2061,-0.2173,-0.2258,-0.2388,-0.2461,-0.2578,-0.259,-0.2593,-0.2643,-0.2608,-0.261,-0.2473,-0.237,-0.2348,-0.231,-0.2601,-0.26,-0.26,-0.26,-0.2088,-0.2146,-0.2254,-0.2371,-0.2433,-0.2485,-0.25,-0.2508,-0.244,-0.2514,-0.2455,-0.2438,-0.2317,-0.2286,-0.2596,-0.2596,-0.2597,-0.2597,-0.2598,-0.2045,-0.2076,-0.2164,-0.2288,-0.2348,-0.2426,-0.2359,-0.2389,-0.2374,-0.2328,-0.2201,-0.22,-0.218,-0.2298,-0.2297,-0.2296,-0.2296,-0.2296,-0.2295,-0.1941,-0.203,-0.2064,-0.2206,-0.224,-0.2267,-0.2278,-0.2208,-0.2121,-0.2098,-0.2096,-0.2104,-0.238,-0.2401,-0.2285,-0.2287,-0.2288,-0.2289,-0.229,-0.1863,-0.1883,-0.193,-0.1965,-0.2038,-0.1958,-0.2026,-0.1862,-0.1805,-0.1709,-0.1745,-0.1952,-0.1942,-0.1961,-0.1971,-0.175,-0.175,-0.175,-0.175,-0.175,-0.1789,-0.1775,-0.1777,-0.1768,-0.1792,-0.1549,-0.1494,-0.1458,-0.1424,-0.1504,-0.1546,-0.157,-0.1544,-0.1573,-0.1578,-0.1263,-0.1262,-0.1262,-0.1658,-0.1684,-0.1615,-0.1659,-0.1644,-0.1546,-0.1311,-0.1202,-0.1193,-0.1249,-0.148,-0.15,-0.158,-0.1621,-0.1605,-0.1648,-0.1667,0,0]},{"header":{"parameterUnit":"m.s-1","parameterCategory":2,"la1":30.2992,"la2":30.254,"lo1":-89.0895,"lo2":-89.0443,"dy":0.0025,"dx":0.0025,"nx":19,"ny":19,"refTime":"2026-04-02T21:00:00:Z","depth":"0","parameterNumber":3,"parameterNumberName":"V-component_of_CURRENTS"},"data":[0,0,0,-0.0401,-0.0399,-0.0236,-0.0235,0.0024,0.0026,0,0,0,0,0,0,0,0,0,0,0,-0.0459,-0.0459,-0.0402,-0.0399,-0.0236,-0.0235,0.0023,0.0026,0,0,0,0,0,0,0,0,0,0,0,-0.0459,-0.0459,-0.0458,-0.0398,-0.0236,-0.0235,0.0023,-0.0104,0,0,0,0,0,0,0,0,0,0,-0.0265,-0.0339,-0.0459,-0.0458,-0.0398,-0.0237,-0.0235,-0.0111,-0.0096,-0.0047,0,-0.0045,0,-0.0017,0.0041,0.0042,0,0,0,-0.0364,-0.0351,-0.0313,-0.0458,-0.0397,-0.0237,-0.03,-0.0103,-0.0087,-0.0028,-0.0042,-0.0032,-0.0013,0.0042,0.0044,0.0208,0.0208,0,0,-0.0373,-0.0412,-0.0324,-0.0304,-0.0384,-0.0305,-0.0295,-0.0093,-0.0084,-0.0041,-0.0026,-0.0008,0.0044,0.0046,0.0208,0.0208,0,0,0,-0.0422,-0.0419,-0.0386,-0.0314,-0.0296,-0.0301,-0.029,-0.0093,-0.0085,-0.0023,-0.0005,0.0045,0.0048,0.0208,0.0208,0.0146,0,0,0,-0.0426,-0.045,-0.0391,-0.0409,-0.0301,-0.02,-0.0294,-0.0098,-0.0075,-0.0007,0.0045,0.005,0.0208,0.0208,0.0147,0.0114,0,0,0,-0.0461,-0.0453,-0.0445,-0.0413,-0.0358,-0.0203,-0.0181,-0.0092,-0.0065,0.0042,0.0051,0.0208,0.0208,0.0148,0.0117,0.0149,0,0,0,-0.0489,-0.0508,-0.0447,-0.0459,-0.036,-0.0275,-0.0182,-0.0097,-0.0015,0.0047,0.0208,0.0208,0.0149,0.0118,0.0149,0.0154,0.0151,0,0,-0.0533,-0.0514,-0.0522,-0.0464,-0.0417,-0.0293,-0.0209,-0.0069,0.0009,0.0151,0.0155,0.0147,0.0117,0.0149,0.0167,0.0163,0,0,0,-0.0549,-0.0556,-0.0531,-0.049,-0.0401,-0.0289,-0.0147,-0.0068,0.0064,0.0053,0.0169,0.0152,0.0174,0.018,0.0177,0.0327,0.0209,0.0209,0.0209,-0.0617,-0.0584,-0.0576,-0.051,-0.044,-0.027,-0.017,-0.0032,0.0045,0.0088,0.0118,0.012,0.0124,0.0122,0.0276,0.0141,0.0141,0.014,0.014,-0.0686,-0.0688,-0.0614,-0.0607,-0.0471,-0.0379,-0.0163,-0.0085,0.0066,0.0099,0.0124,0.0133,0.0115,0.0281,0.0137,0.0137,0.0138,0.0138,0.0138,-0.0737,-0.0734,-0.0734,-0.0697,-0.0592,-0.0432,-0.0299,-0.0146,-0.0002,0.0033,0.0088,0.0089,0.0224,0.0055,0.0055,0.0055,0.0055,0.0055,0.0055,-0.0796,-0.0787,-0.0816,-0.0773,-0.0722,-0.0602,-0.037,-0.0257,-0.008,0.0026,0.0028,0.0248,0.0095,0.0086,0.0055,0.0055,0.0055,0.0055,0.0055,-0.0871,-0.0877,-0.0915,-0.0907,-0.0801,-0.0701,-0.0509,-0.0273,-0.0142,-0.006,0.0234,0.0053,0.0084,0.0087,0.008,0.0049,0.0049,0.0049,0.0049,-0.0916,-0.0926,-0.0967,-0.0952,-0.0881,-0.0732,-0.0554,-0.0282,0.0078,0.0268,0.0318,0.0347,0.0341,0.039,0.0387,0.0388,0.0436,0.0437,0.0438,-0.0955,-0.0968,-0.0992,-0.0987,-0.0903,-0.0766,-0.0575,-0.0198,0.0304,0.047,0.0529,0.0512,0.0573,0.055,0.064,0.0623,0.0628,0,0]}],[{"header":{"parameterUnit":"m.s-1","parameterCategory":2,"la1":30.2992,"la2":30.254,"lo1":-89.0895,"lo2":-89.0443,"dy":0.0025,"dx":0.0025,"nx":19,"ny":19,"refTime":"2026-04-02T21:00:00:Z","depth":"2","parameterNumber":2,"parameterNumberName":"U-component_of_CURRENTS"},"data":[0,0,0,-0.1967,-0.197,-0.2186,-0.2187,-0.2329,-0.2329,0,0,0,0,0,0,0,0,0,0,0,-0.1868,-0.1868,-0.1966,-0.1971,-0.2186,-0.2187,-0.2329,-0.2329,0,0,0,0,0,0,0,0,0,0,0,-0.1868,-0.1868,-0.1869,-0.1971,-0.2186,-0.2187,-0.2328,-0.2205,0,0,0,0,0,0,0,0,0,0,-0.2015,-0.1944,-0.1868,-0.1869,-0.1972,-0.2185,-0.2187,-0.22,-0.2212,-0.2185,0,-0.2191,0,-0.226,-0.2334,-0.2334,0,0,0,-0.1994,-0.1934,-0.1981,-0.1869,-0.1974,-0.2185,-0.2095,-0.2208,-0.2221,-0.22,-0.2194,-0.2201,-0.2262,-0.2334,-0.2334,-0.231,-0.231,0,0,-0.1982,-0.1925,-0.1972,-0.1988,-0.1991,-0.2088,-0.2102,-0.2218,-0.2217,-0.2194,-0.2206,-0.2265,-0.2334,-0.2335,-0.2311,-0.231,0,0,0,-0.1932,-0.1916,-0.1965,-0.198,-0.2029,-0.2094,-0.211,-0.2213,-0.2225,-0.2208,-0.2266,-0.2335,-0.2336,-0.2312,-0.2311,-0.2286,0,0,0,-0.1926,-0.1887,-0.1958,-0.193,-0.2026,-0.2145,-0.2101,-0.2217,-0.2233,-0.2266,-0.2335,-0.2336,-0.2313,-0.2311,-0.2288,-0.2261,0,0,0,-0.1865,-0.1882,-0.1892,-0.1926,-0.2011,-0.2146,-0.2168,-0.2223,-0.2267,-0.2334,-0.2336,-0.2313,-0.2312,-0.229,-0.2265,-0.2178,0,0,0,-0.1823,-0.1827,-0.189,-0.1918,-0.2009,-0.2107,-0.2169,-0.2247,-0.2298,-0.2335,-0.2313,-0.2311,-0.2291,-0.2267,-0.2182,-0.2012,-0.1982,0,0,-0.1808,-0.1824,-0.1844,-0.1906,-0.1981,-0.2081,-0.2147,-0.2233,-0.2257,-0.2271,-0.2273,-0.2287,-0.2265,-0.2179,-0.191,-0.1883,0,0,0,-0.1828,-0.184,-0.187,-0.1934,-0.2014,-0.2081,-0.2189,-0.22,-0.2229,-0.2277,-0.2258,-0.2244,-0.2191,-0.2095,-0.2073,-0.2302,-0.2303,-0.2303,-0.2303,-0.1752,-0.1818,-0.1858,-0.194,-0.1989,-0.2085,-0.2112,-0.2137,-0.2194,-0.2173,-0.2203,-0.209,-0.1988,-0.197,-0.2187,-0.2187,-0.2187,-0.2187,-0.2187,-0.1744,-0.1769,-0.1844,-0.1907,-0.1963,-0.2016,-0.2053,-0.208,-0.2066,-0.2127,-0.2077,-0.2047,-0.1944,-0.2184,-0.2185,-0.2185,-0.2185,-0.2186,-0.2186,-0.1702,-0.1717,-0.1775,-0.1845,-0.1898,-0.1975,-0.1944,-0.2007,-0.2012,-0.199,-0.1861,-0.186,-0.2064,-0.1969,-0.1969,-0.1968,-0.1968,-0.1968,-0.1967,-0.162,-0.1678,-0.1692,-0.1783,-0.1807,-0.1847,-0.1891,-0.1855,-0.1798,-0.1789,-0.1787,-0.2016,-0.2023,-0.2048,-0.1959,-0.1961,-0.1962,-0.1963,-0.1963,-0.1537,-0.1561,-0.1571,-0.1591,-0.1642,-0.1587,-0.1675,-0.1557,-0.1526,-0.1438,-0.1646,-0.1656,-0.1635,-0.165,-0.1665,-0.1482,-0.1482,-0.1482,-0.1482,-0.1442,-0.1471,-0.1435,-0.1424,-0.1414,-0.1448,-0.1257,-0.1208,-0.1237,-0.1241,-0.1252,-0.1282,-0.1305,-0.127,-0.1294,-0.1304,-0.1027,-0.1026,-0.1026,-0.1348,-0.1364,-0.1293,-0.1319,-0.1302,-0.1239,-0.1043,-0.0903,-0.0886,-0.1015,-0.1249,-0.1436,-0.1513,-0.1537,-0.1513,-0.154,-0.1569,0,0]},{"header":{"parameterUnit":"m.s-1","parameterCategory":2,"la1":30.2992,"la2":30.254,"lo1":-89.0895,"lo2":-89.0443,"dy":0.0025,"dx":0.0025,"nx":19,"ny":19,"refTime":"2026-04-02T21:00:00:Z","depth":"2","parameterNumber":3,"parameterNumberName":"V-component_of_CURRENTS"},"data":[0,0,0,-0.0404,-0.0403,-0.0291,-0.029,-0.0079,-0.0077,0,0,0,0,0,0,0,0,0,0,0,-0.0443,-0.0443,-0.0405,-0.0403,-0.0291,-0.029,-0.0079,-0.0077,0,0,0,0,0,0,0,0,0,0,0,-0.0443,-0.0443,-0.0442,-0.0403,-0.0291,-0.029,-0.008,-0.0174,0,0,0,0,0,0,0,0,0,0,-0.0289,-0.0349,-0.0443,-0.0442,-0.0402,-0.0291,-0.029,-0.0179,-0.0168,-0.012,0,-0.0122,0,-0.0105,-0.0064,-0.0064,0,0,0,-0.0374,-0.0359,-0.0329,-0.0442,-0.0401,-0.0291,-0.0333,-0.0173,-0.0161,-0.0105,-0.0119,-0.0111,-0.0102,-0.0063,-0.0062,0.0058,0.0057,0,0,-0.0381,-0.0412,-0.0338,-0.0322,-0.0396,-0.0337,-0.033,-0.0166,-0.0162,-0.0118,-0.0107,-0.0098,-0.0062,-0.006,0.0058,0.0058,0,0,0,-0.0418,-0.0417,-0.0392,-0.033,-0.0321,-0.0335,-0.0326,-0.0169,-0.0161,-0.0104,-0.0096,-0.0061,-0.0058,0.0058,0.0058,0.0004,0,0,0,-0.042,-0.044,-0.0395,-0.0411,-0.0326,-0.0255,-0.0333,-0.0172,-0.0154,-0.0097,-0.006,-0.0056,0.0058,0.0058,0.0006,-0.0024,0,0,0,-0.0444,-0.0442,-0.0437,-0.0413,-0.0378,-0.0257,-0.0239,-0.0168,-0.0149,-0.0063,-0.0056,0.0058,0.0058,0.0008,-0.0021,0.0025,0,0,0,-0.0467,-0.0493,-0.0439,-0.0466,-0.0379,-0.0335,-0.024,-0.0186,-0.0124,-0.0059,0.0058,0.0058,0.0008,-0.0019,0.0026,0.0047,0.0045,0,0,-0.0517,-0.05,-0.0518,-0.0468,-0.0461,-0.0347,-0.0301,-0.0179,-0.0107,0.0015,0.0018,0.0005,-0.0021,0.0025,0.0026,0.0025,0,0,0,-0.0546,-0.056,-0.055,-0.0532,-0.0472,-0.0384,-0.0263,-0.0191,-0.0076,-0.0076,0.0013,-0.0002,0.003,0.0044,0.0043,0.0056,0.0056,0.0056,0.0056,-0.0618,-0.0601,-0.0621,-0.0579,-0.0533,-0.0397,-0.0311,-0.0185,-0.011,-0.0071,-0.0039,-0.0036,-0.0024,-0.0024,-0.0028,-0.0028,-0.0028,-0.0028,-0.0029,-0.0701,-0.0717,-0.067,-0.069,-0.0582,-0.0518,-0.0325,-0.0246,-0.0096,-0.0068,-0.0034,-0.0008,-0.0028,-0.0033,-0.0032,-0.0031,-0.0031,-0.0031,-0.003,-0.0753,-0.0759,-0.0773,-0.0771,-0.0703,-0.0572,-0.0448,-0.0303,-0.016,-0.0118,-0.0042,-0.0041,-0.0048,-0.0083,-0.0083,-0.0083,-0.0083,-0.0083,-0.0083,-0.0801,-0.0811,-0.085,-0.0841,-0.0812,-0.0715,-0.0506,-0.0388,-0.0204,-0.0097,-0.0095,-0.0053,-0.0051,-0.0049,-0.0082,-0.0082,-0.0082,-0.0082,-0.0082,-0.0875,-0.0878,-0.0934,-0.0939,-0.0873,-0.0778,-0.0605,-0.036,-0.0225,-0.0135,-0.0053,-0.0054,-0.0021,-0.0019,-0.0015,-0.0037,-0.0037,-0.0037,-0.0037,-0.091,-0.0923,-0.0977,-0.0976,-0.0922,-0.0792,-0.0594,-0.0339,-0.0121,-0.0014,-0.0015,-0.0019,-0.0021,0.0013,0.0013,0.0019,0.0005,0.0005,0.0005,-0.0946,-0.0962,-0.0992,-0.1,-0.0934,-0.0796,-0.0592,-0.026,0.0009,0.0007,-0.0014,-0.0033,-0.0041,-0.0044,0.0007,0.0008,0.0017,0,0]}],[{"header":{"parameterUnit":"m.s-1","parameterCategory":2,"la1":30.2992,"la2":30.254,"lo1":-89.0895,"lo2":-89.0443,"dy":0.0025,"dx":0.0025,"nx":19,"ny":19,"refTime":"2026-04-02T21:00:00:Z","depth":"4","parameterNumber":2,"parameterNumberName":"U-component_of_CURRENTS"},"data":[0,0,0,-0.1188,-0.1187,-0.1175,-0.1176,-0.1223,-0.1223,0,0,0,0,0,0,0,0,0,0,0,-0.1214,-0.1214,-0.1188,-0.1187,-0.1175,-0.1176,-0.1223,-0.1223,0,0,0,0,0,0,0,0,0,0,0,-0.1214,-0.1214,-0.1214,-0.1187,-0.1175,-0.1176,-0.1223,-0.122,0,0,0,0,0,0,0,0,0,0,-0.1225,-0.1227,-0.1214,-0.1214,-0.1187,-0.1175,-0.1176,-0.122,-0.122,-0.1241,0,-0.1243,0,-0.1218,-0.1226,-0.1227,0,0,0,-0.1204,-0.1226,-0.1224,-0.1214,-0.1186,-0.1175,-0.1185,-0.122,-0.1221,-0.1242,-0.1243,-0.1244,-0.1219,-0.1227,-0.1227,-0.1297,-0.1298,0,0,-0.1205,-0.1212,-0.1223,-0.1225,-0.119,-0.1186,-0.1185,-0.122,-0.1224,-0.1243,-0.1244,-0.122,-0.1227,-0.1227,-0.1297,-0.1297,0,0,0,-0.1195,-0.1212,-0.1208,-0.1224,-0.1208,-0.1185,-0.1184,-0.1223,-0.1222,-0.1244,-0.122,-0.1227,-0.1228,-0.1296,-0.1297,-0.125,0,0,0,-0.1196,-0.1205,-0.1209,-0.1213,-0.1207,-0.1203,-0.1187,-0.1221,-0.1223,-0.122,-0.1227,-0.1228,-0.1296,-0.1297,-0.125,-0.1231,0,0,0,-0.1214,-0.1206,-0.1207,-0.1213,-0.1197,-0.1201,-0.1203,-0.1221,-0.1207,-0.1227,-0.1228,-0.1296,-0.1297,-0.125,-0.1232,-0.1191,0,0,0,-0.1218,-0.1203,-0.1208,-0.1189,-0.1198,-0.1183,-0.1202,-0.1207,-0.1223,-0.1228,-0.1296,-0.1297,-0.125,-0.1233,-0.1192,-0.1095,0,0,0,-0.1195,-0.1201,-0.1189,-0.1191,-0.1156,-0.1185,-0.1167,-0.1202,-0.125,-0.1291,-0.1292,-0.125,-0.1232,-0.1191,-0.1159,0,0,0,0,-0.1178,-0.1168,-0.1161,-0.1144,-0.1144,-0.1146,-0.1172,-0.1185,-0.1239,-0.1259,-0.1285,-0.1276,-0.125,-0.12,-0.1302,-0.1302,-0.1302,-0.1302,-0.1302,-0.1135,-0.1134,-0.1105,-0.1104,-0.1107,-0.1123,-0.1141,-0.1179,-0.1218,-0.1245,-0.1262,-0.1236,-0.1185,-0.1292,-0.1292,-0.1291,-0.1291,-0.1291,-0.1291,-0.1075,-0.1045,-0.1063,-0.1044,-0.1062,-0.107,-0.111,-0.1147,-0.1185,-0.1231,-0.1209,-0.1187,-0.1287,-0.1288,-0.1289,-0.1289,-0.1289,-0.1289,-0.129,-0.1026,-0.1007,-0.1024,-0.1003,-0.1007,-0.1041,-0.1049,-0.1109,-0.1154,-0.1162,-0.1108,-0.1203,-0.1176,-0.1151,-0.1151,-0.1151,-0.115,-0.115,-0.115,-0.096,-0.0968,-0.0949,-0.0952,-0.0938,-0.096,-0.102,-0.104,-0.1087,-0.1053,-0.1153,-0.1188,-0.1193,-0.117,-0.1146,-0.1147,-0.1147,-0.1148,-0.1148,-0.0854,-0.0893,-0.0845,-0.0834,-0.0814,-0.0825,-0.0907,-0.0934,-0.0924,-0.0899,-0.0983,-0.0993,-0.0995,-0.1004,-0.0974,-0.0892,-0.089,-0.0889,0,-0.078,-0.0797,-0.073,-0.0687,-0.0661,-0.0727,-0.0723,-0.0776,-0.0817,-0.079,-0.0905,-0.0999,-0.1006,-0.101,-0.1016,-0.0981,0,0,0,-0.0687,-0.069,-0.0614,-0.0613,-0.0575,-0.0631,-0.0723,-0.0717,-0.0813,-0.0801,-0.0854,-0.0863,-0.1057,-0.1134,-0.116,-0.1166,-0.1129,0,0]},{"header":{"parameterUnit":"m.s-1","parameterCategory":2,"la1":30.2992,"la2":30.254,"lo1":-89.0895,"lo2":-89.0443,"dy":0.0025,"dx":0.0025,"nx":19,"ny":19,"refTime":"2026-04-02T21:00:00:Z","depth":"4","parameterNumber":3,"parameterNumberName":"V-component_of_CURRENTS"},"data":[0,0,0,-0.0292,-0.0291,-0.0277,-0.0277,-0.023,-0.023,0,0,0,0,0,0,0,0,0,0,0,-0.0304,-0.0304,-0.0292,-0.0291,-0.0277,-0.0277,-0.023,-0.023,0,0,0,0,0,0,0,0,0,0,0,-0.0304,-0.0304,-0.0304,-0.0291,-0.0277,-0.0277,-0.023,-0.0248,0,0,0,0,0,0,0,0,0,0,-0.0265,-0.0289,-0.0304,-0.0304,-0.0291,-0.0277,-0.0277,-0.0249,-0.0246,-0.023,0,-0.0237,0,-0.023,-0.0226,-0.0226,0,0,0,-0.0288,-0.0291,-0.0279,-0.0304,-0.0291,-0.0277,-0.0282,-0.0248,-0.0245,-0.0227,-0.0236,-0.0234,-0.0229,-0.0226,-0.0226,-0.0213,-0.0213,0,0,-0.0289,-0.0305,-0.0281,-0.0278,-0.0298,-0.0283,-0.0282,-0.0246,-0.0252,-0.0236,-0.0233,-0.0228,-0.0226,-0.0225,-0.0213,-0.0213,0,0,0,-0.0293,-0.0306,-0.0296,-0.028,-0.0278,-0.0283,-0.0282,-0.0254,-0.0249,-0.0232,-0.0228,-0.0225,-0.0225,-0.0213,-0.0213,-0.0289,0,0,0,-0.0294,-0.0308,-0.0296,-0.0306,-0.0279,-0.0271,-0.029,-0.0252,-0.0247,-0.0228,-0.0225,-0.0224,-0.0212,-0.0213,-0.0286,-0.0307,0,0,0,-0.0303,-0.0309,-0.0309,-0.0307,-0.03,-0.0272,-0.0265,-0.0251,-0.0244,-0.0226,-0.0224,-0.0212,-0.0213,-0.0284,-0.0303,-0.0248,0,0,0,-0.0316,-0.0347,-0.031,-0.0351,-0.0301,-0.0322,-0.0265,-0.0272,-0.0264,-0.0225,-0.0212,-0.0213,-0.0283,-0.0301,-0.0247,-0.0201,0,0,0,-0.0365,-0.0353,-0.0379,-0.0346,-0.0391,-0.0323,-0.0355,-0.0313,-0.0263,-0.0221,-0.0221,-0.0287,-0.0303,-0.0248,-0.0236,0,0,0,0,-0.0402,-0.0422,-0.0431,-0.0446,-0.0438,-0.0419,-0.0375,-0.0341,-0.03,-0.026,-0.0277,-0.0284,-0.0247,-0.0218,-0.0216,-0.0216,-0.0216,-0.0216,-0.0216,-0.0467,-0.0474,-0.0524,-0.0527,-0.0529,-0.0485,-0.0461,-0.04,-0.0357,-0.0342,-0.034,-0.0343,-0.0318,-0.0338,-0.0338,-0.0338,-0.0339,-0.0339,-0.0339,-0.0544,-0.0575,-0.0582,-0.0635,-0.0607,-0.0615,-0.0534,-0.049,-0.0412,-0.0391,-0.0351,-0.0295,-0.0346,-0.0345,-0.0344,-0.0343,-0.0342,-0.0342,-0.0342,-0.0581,-0.0599,-0.0638,-0.0694,-0.0711,-0.0675,-0.0621,-0.0562,-0.0471,-0.0447,-0.0337,-0.0358,-0.0354,-0.0402,-0.0402,-0.0402,-0.0402,-0.0402,-0.0402,-0.0596,-0.0637,-0.0691,-0.0746,-0.0764,-0.075,-0.0658,-0.0575,-0.0481,-0.0396,-0.0439,-0.0362,-0.036,-0.0354,-0.04,-0.04,-0.04,-0.0401,-0.0401,-0.0636,-0.0652,-0.0722,-0.0758,-0.0784,-0.0756,-0.0692,-0.0506,-0.04,-0.0305,-0.0339,-0.0342,-0.0289,-0.0287,-0.0278,-0.0302,-0.0301,-0.0301,0,-0.0643,-0.0663,-0.0731,-0.0763,-0.0756,-0.074,-0.0581,-0.0475,-0.036,-0.0367,-0.04,-0.0447,-0.0446,-0.0395,-0.0392,-0.0387,0,0,0,-0.0655,-0.0676,-0.0709,-0.0751,-0.0734,-0.0603,-0.0531,-0.0454,-0.0412,-0.0271,-0.0289,-0.0292,-0.0369,-0.0395,-0.0318,-0.0316,-0.0301,0,0]}]]